• Join FlightAware (Why Join?)
  • Login
  • US Flag 
05:24PM EDT


 

Airport Tracker/Info


-or-


 

Live Flight TrackerFlight Track Log ✈ FLG3729 ✈ 17-Aug-2013 ✈ KALB - KDTW

Flight Track Log - Related Links

Times and Time Zones

All times are in EDT time to prevent confusion due to time zone crossing. See the FLG3729 flight status page for this flight to view local times or setup timezone preferences in your user account.

Time Position Orientation Groundspeed Altitude Reporting Facility
EDT Latitude Longitude Course Direction KTS MPH feet Rate Location/Type
06:08AM 42.7694 -73.8089 304° West 148 170 1,200  Level Boston Center
06:09AM 42.7881 -73.8094 359° North 155 178 2,000 1,860 Climbing Boston Center
06:10AM 42.8400 -73.8389 337° Northwest 210 242 4,000 1,980 Climbing Boston Center
06:11AM 42.8853 -73.8825 325° Northwest 242 278 5,900 2,400 Climbing Boston Center
06:12AM 42.9553 -73.9494 325° Northwest 262 302 8,800 2,580 Climbing Boston Center
06:13AM 43.0128 -73.9989 328° Northwest 270 311 11,100 1,740 Climbing Boston Center
06:14AM 42.8765 -74.5529 304° West  Level FlightAware Approximate
06:14AM 43.0931 -74.0750 325° Northwest 305 351 12,300  Level Boston Center
06:15AM 43.1631 -74.1422 325° Northwest 340 391 14,100 1,860 Climbing Boston Center
06:16AM 43.2492 -74.2303 323° Northwest 353 406 16,000 1,560 Climbing Boston Center
06:17AM 43.2578 -74.3444 276° West 321 369 17,300 1,200 Climbing Boston Center
06:18AM 43.2531 -74.4925 268° West 321 369 18,500 1,260 Climbing Boston Center
06:19AM 43.2483 -74.6322 267° West 348 400 19,800 1,320 Climbing Boston Center
06:20AM 43.2414 -74.7744 266° West 367 422 21,200 1,200 Climbing Boston Center
06:21AM 43.2344 -74.9139 266° West 372 428 22,300 1,080 Climbing Boston Center
06:22AM 43.2269 -75.0561 266° West 377 434 23,400 960 Climbing Boston Center
06:23AM 43.2181 -75.1725 264° West 377 434 24,300 960 Climbing Boston Center
06:24AM 43.2078 -75.3286 265° West 382 440 25,400 1,020 Climbing Boston Center
06:25AM 43.1981 -75.4678 265° West 382 440 26,400 840 Climbing Boston Center
06:26AM 43.1900 -75.6069 266° West 382 440 27,200 780 Climbing Boston Center
06:27AM 43.1800 -75.7461 264° West 377 434 28,000 360 Climbing Boston Center
06:28AM 43.1694 -75.8878 264° West 377 434 28,000  Level Boston Center
06:30AM 43.1428 -76.2181 264° West 390 449 28,000  Level Cleveland Center
06:31AM 43.1319 -76.3725 265° West 406 467 28,000  Level Cleveland Center
06:32AM 43.1186 -76.5297 263° West 417 480 28,000  Level Cleveland Center
06:33AM 43.1075 -76.6869 265° West 417 480 28,000  Level Cleveland Center
06:34AM 43.0933 -76.8300 262° West 422 486 28,000  Level Cleveland Center
06:35AM 43.0797 -76.9872 263° West 427 491 28,000  Level Cleveland Center
06:36AM 43.0678 -77.1500 264° West 427 491 28,000  Level Cleveland Center
06:37AM 43.0536 -77.3072 263° West 427 491 28,000  Level Cleveland Center
06:38AM 43.0392 -77.4642 263° West 427 491 28,000  Level Cleveland Center
06:39AM 43.0286 -77.6097 264° West 421 484 28,000  Level Cleveland Center
06:40AM 43.0153 -77.7494 263° West 399 459 28,000  Level Cleveland Center
06:41AM 43.0006 -77.9119 263° West 393 452 28,000  Level Cleveland Center
06:42AM 42.9872 -78.0628 263° West 393 452 28,000  Level Cleveland Center
06:43AM 42.9736 -78.2108 263° West 398 458 28,000  Level Cleveland Center
06:44AM 42.9600 -78.3592 263° West 398 458 28,000  Level Cleveland Center
06:45AM 42.9439 -78.5042 261° West 398 458 28,000  Level Cleveland Center
06:46AM 42.9297 -78.6522 263° West 398 458 28,000  Level Cleveland Center
06:47AM 42.9111 -78.7975 260° West 393 452 28,000  Level Cleveland Center
06:48AM 42.8864 -78.9453 257° West 393 452 28,000  Level Cleveland Center
06:49AM 42.8633 -79.0906 258° West 393 452 28,000  Level Cleveland Center
06:50AM 42.8442 -79.2381 260° West 393 452 28,000  Level Cleveland Center
06:51AM 42.8250 -79.3831 260° West 393 452 28,000  Level Cleveland Center
06:52AM 42.8036 -79.5306 259° West 393 452 28,000  Level Cleveland Center
06:53AM 42.7819 -79.6781 259° West 393 452 28,000  Level Cleveland Center
06:54AM 42.7600 -79.8253 259° West 393 452 28,000  Level Cleveland Center
06:55AM 42.7503 -79.9753 265° West 393 452 28,000  Level Cleveland Center
06:56AM 42.7406 -80.1111 264° West 398 458 28,000  Level Cleveland Center
06:57AM 42.7350 -80.2639 267° West 403 464 28,000  Level Cleveland Center
06:58AM 42.7289 -80.4108 267° West 403 464 28,000  Level Cleveland Center
06:59AM 42.7228 -80.5633 267° West 403 464 28,000  Level Cleveland Center
07:00AM 42.7144 -80.7131 266° West 397 457 28,000  Level Cleveland Center
07:01AM 42.7078 -80.8658 267° West 407 468 28,000 -300 Level Cleveland Center
07:02AM 42.6928 -81.0153 262° West 402 463 27,400 -840 Descending Cleveland Center
07:03AM 42.6756 -81.1733 262° West 402 463 26,400 -1,080 Descending Cleveland Center
07:04AM 42.6558 -81.3286 260° West 409 471 25,300 -1,080 Descending Cleveland Center
07:05AM 42.6403 -81.4722 262° West 402 463 24,300 -840 Descending Cleveland Center
07:06AM 42.6244 -81.6186 262° West 397 457 23,700 -1,200 Descending Cleveland Center
07:07AM 42.6042 -81.7678 260° West 397 457 21,900 -1,800 Descending Cleveland Center
07:08AM 42.5881 -81.9058 261° West 402 463 20,200 -1,860 Descending Cleveland Center
07:09AM 42.5697 -82.0436 260° West 402 463 18,200 -1,860 Descending Cleveland Center
07:10AM 42.5533 -82.1814 261° West 383 441 16,500 -1,920 Descending Cleveland Center
07:10AM 42.5436 -82.2769 262° West 357 411 15,100 -2,160 Descending Cleveland Center
07:11AM 42.5247 -82.4286 260° West 367 422 12,800 -1,500 Descending Cleveland Center
07:12AM 42.5017 -82.5603 257° West 356 410 12,000 -840 Descending Cleveland Center
07:13AM 42.4553 -82.6967 245° Southwest 346 398 11,100 -900 Descending Cleveland Center
07:14AM 42.4136 -82.8161 245° Southwest 354 407 10,100 -960 Descending Cleveland Center
07:16AM 42.3925 -82.9278 256° West 266 306 9,200 -1,500 Descending Cleveland Center
07:17AM 42.3778 -83.0314 259° West 306 352 6,900 -2,040 Descending Cleveland Center
07:18AM 42.3672 -83.1322 262° West 288 331 4,900 -1,920 Descending Cleveland Center
07:19AM 42.3339 -83.2319 246° West 247 284 3,100 -1,200 Descending Cleveland Center
07:20AM 42.2908 -83.2806 220° Southwest 191 220 2,600 -900 Descending Cleveland Center
07:21AM 42.2528 -83.3100 210° Southwest 147 169 1,400 -1,200 Descending Cleveland Center
07:23AM 42.2124 -83.3534 246° West  Level Estimated
07:30AM 42.2124 -83.3534 246° West  Level Estimated
07:31AM 42.2124 -83.3534 246° West  Level Estimated